CAPE
5 8 8 8 9 9 8 8 5 4 5 6 6 8 12 18 18 14 18 22 22 20
4 6 9 6 7 7 6 5 5 4 5 5 6 7 10 20 12 8 13 12 15 12
4 3 4 3 6 5 4 3 5 5 2 3 2 3 3 10 8 9 6 3 4 2
2 2 2 3 2 2 2 3 3 3 4 2 3 0 1 1 0 0 0 0 0 0
0 0 1 1 2 2 2 2 2 3 4 4 4 1 0 0 0 0 0 0 0 0
0 0 0 0 1 1 1 2 1 2 1 0 0 0 0 0 0 0 0 0 0 0
0 0 0 1 1 1 1 2 1 0 0 0 0 0 0 0 0 0 0 0 0 0
0 0 0 0 0 0 0 0 0 0 0 0 0 0 0 0 0 0 0 0 0 0
0 0 0 0 0 0 0 0 0 0 0 0 0 0 0 0 0 0 0 0 0 0
0 0 0 0 0 0 0 0 0 0 0 0 0 0 0 0 0 0 0 0 0 0
0 0 0 0 0 0 0 0 0 0 0 0 0 0 0 0 0 0 0 0 0 0
0 0 0 0 0 0 0 0 0 0 0 0 0 0 0 0 0 0 0 0 0 0
0 0 0 0 0 0 0 0 0 0 0 0 0 0 0 0 0 0 0 0 0 0
0 0 0 0 0 0 0 0 0 0 0 0 0 0 0 0 0 0 0 0 0 0
CIN
-0 -0 -0 -0 -0 -0 -0 -0 -0 -0 -0 -0 -0 -0 -0 -0 -0 -0 -0 -0 -0 -0
-0 -0 -0 -0 -0 -0 -0 -0 -0 -0 -0 -0 -0 -0 -0 -0 -0 -0 -0 -0 -0 -0
-0 -0 -0 -0 -0 -0 -0 -0 -0 -0 -0 -0 -0 -0 -0 -0 -0 -0 -0 -0 -0 -0
-0 -0 -0 -0 -0 -0 -0 -0 -0 -0 -0 -0 -0 -0 -0 -0 -0 -0 -0 -0 -0 -0
-0 -0 -0 -0 -0 -0 -0 -0 -0 -0 -0 -0 -0 -0 -0 -0 -0 -0 -0 -0 -0 -0
-0 -0 -0 -0 -0 -0 -0 -0 -0 -0 -0 -0 -0 -0 -0 -0 -0 -0 -0 -0 -0 -0
-0 -0 -0 -0 -0 -0 -0 -0 -0 -0 -0 -0 -0 -0 -0 -0 -0 -0 -0 -0 -0 -0
-0 -0 -0 -0 -0 -0 -0 -0 -0 -0 -0 -0 -0 -0 -0 -0 -0 -0 -0 -0 -0 -0
-0 -0 -0 -0 -0 -0 -0 -0 -0 -0 -0 -0 -0 -0 -0 -0 -0 -0 -0 -0 -0 -0
-0 -0 -0 -0 -0 -0 -0 -0 -0 -0 -0 -0 -0 -0 -0 -0 -0 -0 -0 -0 -0 -0
-0 -0 -0 -0 -0 -0 -0 -0 -0 -0 -0 -0 -0 -0 -0 -0 -0 -0 -0 -0 -0 -0
-0 -0 -0 -0 -0 -0 -0 -0 -0 -0 -0 -0 -0 -0 -0 -0 -0 -0 -0 -0 -0 -0
-0 -0 -0 -0 -0 -0 -0 -0 -0 -0 -0 -0 -0 -0 -0 -0 -0 -0 -0 -0 -0 -0
-0 -0 -0 -0 -0 -0 -0 -0 -0 -0 -0 -0 -0 -0 -0 -0 -0 -0 -0 -0 -0 -0
Wind_Speed
19 19 19 19 20 20 20 20 19 17 17 15 14 13 10 9 10 10 10 10 10 10
16 16 16 15 15 15 15 15 14 13 12 11 10 10 7 5 6 7 6 8 7 8
12 12 12 11 10 10 10 10 10 9 9 8 7 7 9 3 3 4 4 4 5 6
8 8 8 7 6 6 6 7 6 5 5 4 4 5 6 4 3 2 1 2 4 7
4 4 4 3 3 4 4 4 3 2 2 0 3 2 2 3 3 3 2 3 5 8
2 1 1 2 4 1 0 0 0 3 3 5 4 2 1 7 6 7 6 6 7 7
4 3 4 5 6 6 6 7 5 4 5 7 8 4 3 5 8 4 7 8 11 10
6 7 8 8 7 8 9 9 7 10 12 9 8 6 7 8 8 11 11 12 14 14
7 8 7 8 7 11 12 11 9 13 14 10 10 10 12 11 12 12 14 14 15 15
13 9 7 9 9 9 10 10 9 12 11 13 12 13 13 13 13 14 15 16 17 18
9 6 7 7 10 8 12 12 11 12 14 14 14 14 15 17 16 17 18 18 19 19
25 21 12 5 10 20 20 19 17 17 17 18 18 17 16 17 17 18 18 19 21 22
21 13 7 15 25 22 19 16 15 14 14 16 16 16 17 18 18 19 20 21 23 25
27 28 27 27 25 22 20 19 17 17 17 18 18 19 19 20 20 21 22 23 25 26
Wind_Direction
271 270 270 268 266 266 265 268 275 278 276 273 274 274 265 263 267 278 270 267 269 274
274 272 271 272 271 269 270 274 277 281 281 277 280 274 277 258 271 286 284 284 286 296
271 274 276 280 280 278 277 279 284 288 283 283 281 288 267 223 272 289 289 310 313 327
269 276 283 289 293 294 291 294 299 299 290 304 298 307 241 260 129 86 24 339 356 1
298 314 327 330 333 327 325 292 304 269 27 36 54 50 211 94 67 88 40 350 357 358
355 2 33 45 31 24 16 120 169 168 70 76 39 130 194 69 73 49 35 9 7 358
48 66 76 73 67 69 71 63 74 81 58 63 61 52 60 55 46 15 15 19 14 3
71 71 73 71 72 86 68 72 78 72 68 69 64 63 62 50 38 36 27 13 12 9
95 85 102 93 91 77 76 72 77 65 61 63 59 53 49 43 40 28 26 21 11 4
149 135 111 72 88 93 74 65 69 55 51 51 45 41 35 28 20 19 16 16 20 16
141 111 114 103 72 68 54 49 48 43 42 40 36 27 28 33 25 22 20 15 6 359
143 149 154 118 55 62 59 54 48 45 44 43 37 28 18 19 18 12 5 0 355 352
150 164 46 53 79 66 55 42 33 26 17 19 14 8 9 8 8 2 2 356 352 348
122 114 109 100 83 68 56 50 40 32 23 19 13 19 14 6 4 1 356 352 348 348